TimeEDT,TemperatureF,Dew PointF,Humidity,Sea Level PressureIn,VisibilityMPH,Wind Direction,Wind SpeedMPH,Gust SpeedMPH,PrecipitationIn,Events,Conditions,WindDirDegrees,DateUTC
12:53 AM,42.1,27.0,55,30.08,10.0,South,10.4,-,N/A,,Scattered Clouds,180,2012-10-09 04:53:00
1:53 AM,41.0,27.0,57,30.08,10.0,South,6.9,-,N/A,,Scattered Clouds,190,2012-10-09 05:53:00
2:53 AM,41.0,28.0,60,30.08,10.0,South,9.2,-,N/A,,Scattered Clouds,180,2012-10-09 06:53:00
3:53 AM,41.0,28.4,61,30.05,10.0,South,9.2,-,N/A,,Scattered Clouds,190,2012-10-09 07:53:00
4:53 AM,39.2,28.4,65,30.05,10.0,South,10.4,-,N/A,,Mostly Cloudy,190,2012-10-09 08:53:00
5:53 AM,41.0,28.9,62,30.05,10.0,South,8.1,-,N/A,,Mostly Cloudy,180,2012-10-09 09:53:00
6:53 AM,41.0,30.0,65,30.05,10.0,South,9.2,-,N/A,,Mostly Cloudy,180,2012-10-09 10:53:00
7:53 AM,41.0,30.0,65,30.04,10.0,South,9.2,-,N/A,,Mostly Cloudy,170,2012-10-09 11:53:00
8:53 AM,45.0,30.9,58,30.05,10.0,South,9.2,-,N/A,,Scattered Clouds,180,2012-10-09 12:53:00
9:53 AM,48.9,33.1,54,30.04,10.0,SSW,13.8,-,N/A,,Scattered Clouds,200,2012-10-09 13:53:00
10:53 AM,53.1,34.0,48,30.02,10.0,SSW,16.1,28.8,N/A,,Partly Cloudy,200,2012-10-09 14:53:00
11:53 AM,57.0,35.1,44,30.00,10.0,SSW,21.9,29.9,N/A,,Scattered Clouds,200,2012-10-09 15:53:00
12:53 PM,60.1,36.0,41,29.98,10.0,South,19.6,27.6,N/A,,Mostly Cloudy,190,2012-10-09 16:53:00
1:53 PM,61.0,36.0,39,29.94,10.0,SSW,20.7,26.5,N/A,,Mostly Cloudy,200,2012-10-09 17:53:00
2:53 PM,61.0,35.1,38,29.91,10.0,South,19.6,24.2,N/A,,Mostly Cloudy,190,2012-10-09 18:53:00
3:53 PM,60.1,35.1,39,29.90,10.0,SSW,18.4,28.8,N/A,,Mostly Cloudy,200,2012-10-09 19:53:00
4:53 PM,60.1,36.0,41,29.89,10.0,SSW,17.3,26.5,N/A,,Mostly Cloudy,200,2012-10-09 20:53:00
5:53 PM,60.1,35.1,39,29.88,10.0,SSW,19.6,25.3,N/A,,Mostly Cloudy,210,2012-10-09 21:53:00
6:53 PM,57.9,35.1,42,29.87,10.0,SSW,12.7,-,N/A,,Mostly Cloudy,200,2012-10-09 22:53:00
7:53 PM,57.0,36.0,45,29.87,10.0,South,12.7,19.6,N/A,,Mostly Cloudy,190,2012-10-09 23:53:00
8:53 PM,55.9,36.0,47,29.86,10.0,South,10.4,-,N/A,,Mostly Cloudy,190,2012-10-10 00:53:00
9:53 PM,55.0,36.0,49,29.84,10.0,South,12.7,-,N/A,,Overcast,190,2012-10-10 01:53:00
10:53 PM,55.0,36.0,49,29.81,10.0,SSW,15.0,26.5,N/A,,Overcast,200,2012-10-10 02:53:00
11:53 PM,54.0,37.0,53,29.78,10.0,South,12.7,-,N/A,,Mostly Cloudy,190,2012-10-10 03:53:00